Location: Unspecified
(0.0000°N, 0.0000°E)
Time: 19:19:42
(UTC+00:00)

Vanguard 2 Rocket - Pass Details

Date: 09 December 2017
Orbit: 556 x 3326 km, 32.9° (Epoch: 15 January)

Event Time Altitude Azimuth Distance (km) Brightness Sun altitude
Rises 19:59:56 0° 279° (W) 5,128 11.5 -29.1°
Reaches altitude 10° 20:03:47 10° 292° (WNW) 4,539 10.9 -29.9°
Maximum altitude 20:14:21 26° 343° (NNW) 4,265 10.1 -32.3°
Enters shadow 20:20:35 22° 10° (N) 4,917 10.2 -33.7°
